Wind_Speed
5 6 6 5 5 5 4 5 4 4 4 4 3 3 3 3 2 2 2 2 3 2 3 2 3 3 2 2 1 1 0 1 2 2 2 3 4 5 5 6 6 6 6 7 7 7 8 9 8
5 6 6 6 6 5 5 5 5 4 4 4 4 3 3 3 2 2 2 2 3 3 2 2 3 3 3 2 2 2 2 2 2 3 3 3 4 5 5 6 6 7 7 8 7 7 8 8 7
5 6 5 5 5 5 5 5 5 5 4 4 3 3 3 3 3 3 3 4 3 3 3 3 3 3 3 3 2 3 2 3 3 4 4 4 5 5 6 6 6 7 7 8 7 8 8 8 7
6 6 6 5 5 5 5 4 4 4 5 5 4 3 3 3 3 3 3 3 3 4 3 3 3 3 3 3 3 3 3 3 4 5 5 6 6 6 7 7 7 7 7 8 8 8 8 9 8
7 6 6 5 6 6 5 5 5 5 5 4 4 4 4 3 3 3 3 3 3 4 4 3 4 3 4 3 3 3 3 4 4 5 6 7 7 7 7 8 8 8 8 8 8 9 10 10 9
7 7 7 6 6 6 6 6 5 5 5 5 5 4 4 4 4 4 3 3 3 3 4 3 4 4 3 3 3 3 4 4 5 6 6 7 7 8 8 8 8 8 8 8 8 9 9 9 9
8 8 7 7 7 6 6 6 5 5 5 5 5 5 4 4 4 4 3 3 3 3 3 4 4 3 3 2 3 4 4 5 5 6 7 7 7 7 8 8 8 8 8 8 8 9 9 10 10
7 8 8 7 7 7 7 6 6 6 6 6 6 5 5 5 5 4 4 4 4 4 4 4 3 3 3 3 3 4 4 5 6 7 7 7 8 8 9 9 9 9 9 9 9 10 10 10 10
8 8 8 7 7 7 7 7 7 6 6 6 6 6 6 5 6 6 5 5 5 5 4 4 4 4 4 4 4 5 5 6 6 7 7 8 9 9 9 10 10 10 10 10 10 11 11 11 11
8 8 8 8 8 8 8 8 7 7 7 7 7 7 7 6 6 7 6 6 6 6 6 5 5 5 5 5 5 5 6 6 7 7 7 8 8 9 9 10 10 10 10 10 10 11 11 12 12
8 8 8 8 8 8 8 8 8 8 7 7 7 8 8 7 7 7 7 7 6 6 7 6 6 6 6 6 6 7 7 8 8 8 8 9 9 9 9 9 10 10 9 10 10 11 12 12 12
8 8 9 9 8 9 9 9 8 9 8 8 8 8 8 8 8 8 8 8 7 7 7 7 7 7 7 7 7 7 8 8 8 8 8 8 8 8 9 9 9 9 9 10 11 11 12 13 13
8 8 8 8 9 9 9 9 8 8 8 8 8 9 8 8 9 9 8 8 8 8 7 8 8 8 8 8 8 8 8 8 8 8 8 8 8 8 9 9 10 10 10 10 11 12 12 12 13
7 8 8 9 9 9 9 9 9 8 8 8 8 8 8 8 9 9 9 9 8 8 8 8 7 8 8 8 8 8 9 9 9 9 8 9 9 10 10 11 11 11 11 11 12 12 12 12 12
8 8 8 9 9 9 9 8 8 8 8 8 8 8 7 8 9 9 9 9 9 9 8 8 8 8 9 9 9 9 9 9 9 9 9 10 10 10 11 11 11 12 12 13 13 13 13 13 13
9 9 9 9 9 9 9 8 8 8 8 8 8 8 7 8 8 9 9 9 9 9 9 9 9 9 9 10 10 10 10 10 10 10 10 11 11 11 12 12 13 13 14 14 14 14 14 14 15
9 9 9 9 9 9 9 8 9 8 9 9 8 8 8 8 8 9 9 9 10 10 10 9 9 9 10 10 10 10 10 10 11 11 11 12 12 13 13 14 14 15 15 15 15 16 16 16 16
8 9 9 9 9 9 9 8 9 10 10 9 9 10 10 10 10 10 10 10 10 10 10 11 11 10 11 11 11 11 11 11 11 12 13 13 14 14 15 16 16 16 16 17 17 17 18 18 18
9 9 10 10 10 11 10 9 10 10 11 11 11 11 11 12 12 12 12 12 12 11 12 12 12 12 11 11 11 11 11 12 12 13 14 15 15 16 17 17 18 18 18 18 19 19 19 19 19
10 10 10 10 11 11 12 11 11 11 12 12 13 13 13 13 13 13 13 13 13 13 13 13 13 12 12 11 12 12 13 13 14 14 15 16 16 17 18 18 19 19 19 20 20 20 21 21 21
10 10 11 11 12 13 13 12 12 13 13 13 13 13 14 14 14 14 14 14 13 13 13 13 13 13 13 13 13 13 14 14 15 15 16 16 17 18 19 20 20 19 19 20 20 21 21 21 21
11 11 12 13 14 14 14 14 13 14 14 13 14 14 15 15 15 15 15 15 14 14 14 14 14 14 14 14 14 14 14 15 15 16 17 17 17 18 19 20 20 20 20 20 20 20 20 20 20
12 13 13 14 14 15 15 15 13 14 15 15 15 16 16 16 16 16 16 16 16 15 15 15 14 14 15 15 15 16 15 16 16 17 17 17 18 19 19 20 20 20 20 21 21 21 21 20 20
14 14 14 15 15 16 15 16 14 14 15 16 16 17 17 17 17 17 17 16 17 17 16 16 16 15 15 16 16 17 18 18 18 18 18 18 19 20 20 20 20 21 21 21 21 22 22 22 22
15 15 15 16 16 16 16 17 16 15 17 18 18 18 18 18 18 18 18 18 18 18 18 18 17 17 17 17 17 18 19 19 19 19 19 20 20 20 21 21 22 22 22 22 22 22 22 23 23
16 16 16 17 17 17 17 18 17 17 18 18 18 18 18 18 18 19 19 19 19 19 19 19 19 19 19 19 20 20 20 20 21 21 21 21 22 22 22 22 23 23 24 24 24 24 24 24 23
16 16 16 18 18 19 18 18 18 17 18 18 18 18 17 18 18 19 19 19 19 20 20 20 20 20 21 21 21 21 21 21 22 22 22 22 23 24 23 23 24 24 25 25 25 25 24 24 24
17 17 17 18 19 19 19 18 17 17 17 18 18 18 17 17 18 20 20 19 19 20 21 21 21 22 22 22 23 23 23 23 23 23 22 23 24 25 24 25 25 26 26 26 26 26 26 26 26
18 18 18 18 19 19 18 16 17 17 17 18 18 18 18 18 19 19 19 20 20 20 21 21 22 23 23 23 23 24 25 25 25 25 24 25 25 26 25 26 27 27 27 27 27 27 28 27 27
19 19 19 19 19 20 19 17 16 17 17 18 18 18 18 18 18 19 19 20 20 21 22 22 23 23 24 24 24 25 26 26 26 27 27 27 27 27 27 28 28 28 28 28 28 28 27 27 27
Wind_Direction
229 230 227 223 229 228 224 218 209 203 205 202 205 207 208 205 203 199 191 187 187 182 181 190 205 217 228 244 257 264 298 319 329 316 295 287 291 295 294 294 293 297 293 289 290 294 298 300 291
230 230 230 227 230 230 227 223 216 205 198 200 206 207 208 204 196 195 195 195 196 197 204 209 216 221 225 234 258 265 267 283 302 305 302 292 291 289 296 300 284 291 291 286 287 294 302 306 292
232 233 233 231 225 222 219 214 212 202 198 202 208 217 212 202 190 202 209 207 200 211 216 221 224 230 228 235 254 260 265 278 287 293 301 302 297 293 294 296 290 291 287 281 283 291 294 300 293
236 236 232 225 219 218 213 210 208 200 200 202 204 210 208 205 202 206 208 205 214 225 221 226 234 233 234 242 248 256 269 284 289 292 298 304 304 299 297 296 293 290 291 288 287 290 291 293 287
236 235 228 221 218 217 213 217 224 220 211 213 211 212 211 205 203 202 204 220 230 230 231 234 239 238 240 249 258 266 274 282 289 291 297 301 304 301 301 299 298 299 300 299 295 292 292 292 287
237 239 237 227 223 219 223 225 225 231 224 218 217 220 221 214 212 218 218 223 226 222 228 231 234 239 238 252 265 268 274 282 291 295 297 299 299 297 299 300 301 300 300 297 294 293 292 287 285
238 240 242 234 227 227 229 228 228 228 227 225 225 223 221 217 218 222 227 227 226 222 233 235 233 235 247 266 278 278 280 284 290 294 295 295 296 294 296 301 302 302 301 297 293 290 285 284 284
237 238 239 235 231 236 233 232 231 227 230 233 231 227 225 226 226 224 230 234 234 236 241 238 241 242 250 266 277 279 284 287 288 292 292 292 294 297 300 300 300 299 296 294 292 291 285 283 282
235 238 237 237 237 239 236 236 234 234 237 237 231 230 232 233 230 231 235 238 244 243 244 250 254 252 256 270 277 280 286 289 289 292 293 294 294 293 295 296 295 293 293 292 291 289 291 288 283
239 238 239 238 238 237 237 238 238 240 240 238 236 236 238 241 239 236 239 245 249 250 251 257 262 265 266 269 273 281 287 289 290 291 292 294 295 292 294 295 293 292 290 290 291 289 292 288 284
237 238 239 238 237 237 237 239 239 243 243 239 238 240 240 240 243 242 246 251 253 256 254 254 261 268 270 271 276 283 289 291 292 291 291 294 295 293 293 296 294 294 291 291 293 294 295 290 284
237 239 240 241 239 238 239 241 238 239 239 241 242 243 242 240 244 250 252 255 257 260 261 259 263 267 270 274 278 281 285 287 290 292 292 293 295 295 296 296 294 293 293 295 297 297 295 293 290
241 244 243 243 242 240 242 239 239 239 239 241 244 245 242 242 246 249 251 254 258 259 262 263 268 270 269 273 277 278 278 281 286 289 290 291 293 294 296 297 296 294 293 295 296 296 295 295 295
243 246 246 243 242 240 240 239 241 240 245 243 244 244 242 240 243 246 247 251 255 257 259 260 264 272 271 271 275 276 279 281 282 282 284 286 288 291 294 294 294 293 294 293 294 295 295 295 294
243 244 246 247 248 243 238 235 240 243 241 243 245 244 243 242 241 244 247 250 253 255 256 258 266 273 274 273 274 277 278 279 280 280 281 284 287 290 292 293 293 294 295 295 295 295 296 294 293
245 243 244 247 245 241 236 238 241 243 240 246 249 247 246 247 245 245 247 251 254 256 258 259 265 271 275 275 274 275 276 278 280 281 282 285 287 289 291 292 292 293 294 294 295 295 294 293 292
247 247 244 244 246 244 242 244 243 247 247 250 253 253 253 253 250 247 249 254 258 262 265 265 266 271 275 276 274 274 277 279 280 282 282 285 288 290 292 293 293 293 292 292 294 293 292 292 292
249 248 245 245 247 249 251 249 246 249 251 254 256 254 255 257 255 254 255 256 258 264 265 266 267 269 273 275 274 275 277 280 280 282 284 287 290 292 294 294 294 292 292 292 293 293 292 291 290
248 249 249 247 248 252 254 253 251 252 256 258 259 260 260 259 258 257 256 257 258 261 263 264 266 266 268 271 274 277 279 283 284 287 288 289 289 291 293 294 294 294 294 293 292 292 292 290 289
248 249 251 249 252 254 256 256 253 255 259 262 263 261 261 261 262 260 258 260 260 261 263 264 265 266 265 267 272 276 280 282 284 287 288 289 291 292 294 296 296 295 295 294 292 292 291 289 287
250 251 255 255 255 257 258 257 255 257 259 261 263 263 262 261 262 261 259 260 262 263 263 264 266 266 267 268 273 275 281 284 286 288 289 291 292 292 294 297 298 297 297 297 296 293 291 290 287
251 254 256 258 259 259 261 260 260 261 261 260 263 264 264 262 261 260 260 260 262 264 265 265 264 266 268 270 274 278 280 284 286 287 288 290 293 294 296 298 298 299 299 299 298 296 294 292 289
254 255 257 259 261 261 262 265 262 264 264 265 263 265 266 266 265 263 262 260 262 265 265 264 265 266 267 270 275 279 281 283 284 286 289 290 293 296 297 298 298 298 299 299 298 298 296 294 291
255 257 258 259 261 263 264 267 266 265 267 267 267 266 265 266 266 266 266 264 263 265 266 264 266 268 268 270 273 278 280 283 286 287 288 291 293 294 295 296 297 297 298 298 298 298 295 294 293
256 258 259 260 262 265 265 265 267 269 270 269 269 268 266 265 266 268 268 266 265 264 265 264 265 268 269 271 273 276 280 284 285 287 287 290 292 292 294 295 295 296 298 297 297 299 297 296 294
258 259 262 265 266 267 267 266 269 271 271 270 269 270 269 266 266 267 267 267 266 266 265 264 265 267 269 271 273 275 280 284 285 286 287 288 290 293 293 293 295 296 296 297 297 298 297 296 294
258 260 264 266 268 270 270 270 270 272 272 272 272 270 269 268 267 266 266 268 268 267 267 267 267 269 270 271 272 275 279 283 286 287 288 288 289 292 292 292 294 295 294 295 295 295 295 293 291
260 262 262 267 271 271 271 273 273 271 272 273 272 269 269 268 267 266 266 267 267 267 267 267 268 270 271 272 273 275 278 282 284 286 288 289 289 291 291 292 293 294 293 293 293 293 292 291 289
260 262 264 267 270 272 273 273 274 273 274 274 275 273 268 267 268 268 268 270 269 269 269 269 270 270 272 273 274 275 278 282 285 287 287 289 290 291 292 293 292 292 292 292 292 293 292 289 288
261 261 263 265 268 271 273 275 276 276 276 274 275 275 273 270 271 271 272 273 272 272 272 272 272 272 272 273 274 276 278 281 284 286 287 289 290 291 293 294 291 290 291 291 291 291 291 289 288
Height
5855 5855 5857 5859 5860 5860 5860 5861 5861 5861 5862 5863 5863 5864 5865 5866 5867 5870 5868 5867 5868 5868 5869 5869 5870 5870 5870 5870 5871 5871 5871 5871 5871 5871 5872 5871 5871 5871 5871 5871 5871 5871 5871 5871 5871 5871 5870 5869 5867
5855 5855 5857 5858 5859 5859 5860 5860 5861 5861 5862 5863 5863 5864 5864 5865 5866 5866 5867 5867 5868 5868 5869 5869 5869 5870 5870 5870 5870 5870 5870 5870 5871 5871 5871 5870 5871 5871 5870 5869 5869 5870 5870 5870 5870 5870 5869 5868 5866
5854 5855 5857 5858 5858 5859 5860 5860 5861 5861 5862 5863 5863 5864 5864 5865 5865 5866 5866 5867 5867 5868 5868 5868 5869 5869 5869 5869 5870 5870 5870 5870 5870 5870 5870 5870 5870 5870 5870 5869 5869 5869 5869 5868 5869 5869 5868 5868 5867
5854 5856 5857 5857 5857 5858 5859 5860 5860 5861 5862 5862 5863 5864 5864 5865 5865 5866 5866 5866 5867 5867 5868 5868 5868 5868 5869 5869 5869 5869 5869 5869 5869 5869 5869 5869 5869 5869 5868 5868 5868 5868 5867 5867 5867 5867 5867 5867 5867
5853 5854 5855 5856 5857 5858 5858 5859 5860 5861 5861 5862 5863 5863 5863 5864 5865 5865 5866 5866 5867 5867 5867 5867 5868 5868 5868 5868 5868 5868 5868 5868 5868 5868 5868 5868 5868 5868 5867 5867 5867 5867 5866 5866 5866 5866 5866 5866 5865
5853 5853 5855 5855 5856 5857 5858 5859 5860 5860 5861 5861 5862 5863 5863 5864 5864 5865 5865 5866 5866 5866 5867 5867 5867 5867 5867 5867 5867 5868 5867 5867 5867 5867 5867 5867 5866 5866 5866 5866 5865 5865 5865 5865 5864 5864 5864 5864 5864
5852 5852 5853 5854 5855 5856 5857 5858 5859 5859 5860 5861 5861 5862 5862 5863 5864 5864 5864 5865 5865 5866 5866 5866 5866 5866 5866 5866 5867 5867 5867 5867 5866 5866 5866 5866 5865 5865 5864 5864 5864 5864 5863 5863 5863 5862 5862 5862 5862
5850 5852 5852 5853 5854 5855 5856 5857 5857 5858 5859 5860 5861 5861 5861 5862 5863 5863 5864 5864 5864 5865 5865 5865 5865 5865 5866 5866 5866 5865 5865 5865 5865 5865 5864 5864 5864 5863 5863 5862 5862 5862 5862 5861 5861 5860 5860 5860 5859
5849 5851 5851 5852 5853 5853 5854 5855 5856 5857 5858 5858 5859 5860 5861 5861 5862 5862 5863 5863 5863 5864 5864 5864 5864 5864 5864 5864 5864 5864 5864 5864 5864 5863 5863 5863 5862 5862 5861 5861 5860 5860 5860 5859 5859 5858 5858 5857 5857
5847 5848 5849 5850 5851 5852 5852 5853 5854 5855 5856 5857 5858 5859 5859 5860 5860 5861 5861 5862 5862 5862 5863 5863 5863 5863 5863 5863 5863 5863 5863 5862 5862 5862 5861 5861 5861 5860 5859 5859 5858 5858 5857 5857 5856 5856 5855 5855 5855
5845 5846 5847 5848 5849 5850 5851 5852 5853 5853 5854 5855 5856 5857 5857 5858 5859 5859 5860 5860 5861 5861 5861 5861 5861 5861 5862 5862 5861 5861 5861 5861 5860 5860 5859 5859 5858 5858 5857 5857 5856 5856 5855 5855 5854 5854 5853 5852 5852
5844 5845 5846 5847 5847 5848 5849 5850 5851 5852 5853 5854 5854 5855 5855 5856 5857 5857 5858 5858 5859 5859 5860 5860 5860 5860 5860 5860 5859 5859 5859 5859 5858 5858 5857 5857 5856 5856 5855 5855 5854 5854 5853 5853 5852 5851 5850 5850 5849
5842 5843 5844 5845 5846 5847 5848 5849 5850 5850 5851 5852 5853 5853 5854 5855 5855 5856 5856 5857 5857 5857 5857 5858 5858 5858 5858 5858 5858 5857 5857 5857 5856 5856 5855 5855 5854 5854 5853 5853 5852 5852 5851 5850 5850 5849 5848 5847 5846
5841 5841 5842 5843 5844 5845 5846 5847 5848 5849 5849 5850 5851 5851 5852 5853 5853 5854 5854 5854 5855 5855 5855 5855 5856 5856 5856 5856 5856 5855 5855 5855 5854 5854 5853 5853 5852 5852 5851 5850 5850 5849 5848 5848 5847 5846 5845 5844 5843
5839 5840 5841 5842 5843 5844 5845 5846 5846 5847 5848 5849 5849 5849 5850 5851 5851 5852 5852 5852 5853 5853 5853 5853 5853 5854 5854 5854 5853 5853 5853 5852 5852 5852 5851 5851 5850 5849 5849 5848 5847 5846 5845 5844 5843 5843 5842 5841 5840
5838 5839 5840 5841 5841 5842 5845 5845 5845 5845 5846 5847 5847 5848 5848 5849 5849 5849 5850 5850 5851 5851 5851 5851 5851 5851 5851 5851 5851 5851 5851 5850 5850 5849 5849 5848 5847 5847 5846 5845 5844 5843 5842 5841 5840 5839 5838 5837 5837
5836 5837 5838 5839 5839 5840 5842 5843 5843 5844 5844 5845 5845 5846 5846 5847 5847 5847 5847 5848 5848 5848 5848 5849 5849 5849 5849 5849 5849 5848 5848 5848 5847 5847 5846 5845 5845 5844 5843 5842 5841 5840 5839 5838 5836 5835 5834 5833 5832
5835 5835 5836 5837 5837 5838 5839 5840 5841 5841 5842 5843 5844 5844 5844 5844 5845 5845 5845 5845 5845 5845 5846 5846 5846 5846 5846 5846 5846 5846 5845 5845 5845 5844 5843 5842 5842 5841 5840 5839 5837 5836 5835 5834 5832 5831 5830 5828 5827
5833 5834 5834 5835 5835 5836 5837 5838 5838 5839 5840 5841 5841 5841 5841 5842 5842 5842 5842 5843 5843 5843 5843 5843 5843 5843 5843 5843 5843 5843 5842 5842 5841 5841 5840 5839 5838 5837 5836 5835 5833 5832 5830 5829 5827 5826 5824 5823 5822
5831 5832 5832 5833 5833 5834 5834 5835 5836 5836 5837 5838 5838 5838 5839 5839 5839 5839 5839 5839 5840 5840 5840 5840 5840 5840 5840 5839 5839 5839 5839 5838 5838 5837 5837 5836 5834 5833 5832 5831 5829 5827 5825 5823 5822 5820 5818 5817 5815
5829 5830 5831 5831 5831 5831 5832 5833 5833 5833 5834 5834 5834 5835 5835 5835 5836 5836 5836 5836 5836 5836 5836 5836 5836 5836 5836 5836 5836 5836 5835 5835 5834 5833 5832 5831 5830 5829 5828 5826 5824 5822 5820 5818 5816 5814 5812 5810 5809
5826 5827 5828 5828 5828 5828 5829 5830 5831 5830 5831 5831 5831 5831 5831 5832 5832 5832 5832 5832 5832 5833 5833 5833 5833 5833 5833 5833 5832 5832 5831 5831 5830 5829 5828 5827 5826 5825 5823 5821 5819 5817 5815 5813 5810 5808 5806 5804 5802
5824 5824 5825 5825 5825 5825 5826 5826 5828 5827 5827 5827 5827 5827 5828 5828 5828 5828 5828 5828 5828 5828 5828 5829 5829 5829 5829 5829 5829 5828 5827 5827 5826 5825 5824 5823 5822 5820 5818 5816 5814 5812 5810 5808 5805 5803 5800 5798 5797
5820 5821 5821 5821 5821 5822 5822 5822 5823 5823 5823 5823 5823 5823 5823 5823 5823 5823 5823 5823 5824 5824 5824 5824 5824 5824 5824 5824 5824 5824 5823 5822 5821 5820 5819 5818 5817 5815 5813 5811 5809 5807 5805 5803 5800 5798 5795 5793 5791
5816 5817 5817 5817 5816 5817 5818 5817 5819 5819 5819 5818 5818 5818 5818 5818 5818 5818 5818 5818 5818 5819 5819 5819 5820 5820 5820 5820 5820 5819 5819 5818 5817 5815 5814 5813 5812 5810 5808 5806 5804 5802 5799 5797 5794 5792 5789 5787 5785
5812 5813 5814 5814 5813 5813 5813 5813 5815 5814 5813 5813 5813 5813 5813 5813 5813 5813 5813 5813 5813 5813 5814 5814 5814 5815 5815 5815 5815 5814 5814 5813 5811 5810 5809 5808 5806 5804 5802 5800 5798 5796 5794 5791 5789 5786 5784 5781 5779
5808 5808 5809 5809 5808 5808 5808 5809 5810 5809 5808 5808 5808 5807 5807 5807 5807 5807 5807 5808 5808 5808 5808 5808 5809 5809 5809 5809 5809 5809 5808 5807 5806 5805 5803 5802 5800 5798 5796 5794 5792 5790 5788 5785 5783 5780 5778 5775 5773
5804 5804 5804 5804 5803 5803 5804 5804 5805 5804 5803 5803 5802 5802 5802 5802 5802 5802 5802 5802 5802 5802 5802 5802 5803 5803 5803 5803 5803 5803 5802 5801 5800 5799 5797 5796 5794 5792 5790 5788 5785 5783 5781 5779 5776 5774 5771 5769 5767
5799 5799 5799 5799 5798 5798 5799 5802 5800 5799 5799 5798 5798 5797 5797 5797 5797 5797 5797 5797 5797 5797 5796 5796 5797 5797 5797 5796 5796 5796 5796 5795 5793 5792 5791 5789 5787 5785 5783 5781 5779 5776 5774 5771 5769 5767 5764 5762 5760
5793 5794 5794 5794 5794 5793 5794 5798 5795 5794 5794 5793 5793 5792 5792 5792 5792 5792 5791 5791 5791 5791 5791 5791 5790 5790 5790 5790 5789 5789 5789 5788 5787 5785 5784 5782 5780 5778 5776 5773 5771 5769 5767 5764 5762 5759 5757 5754 5752